Date String (YYYY-MM-DD hh:mm:ss) UTC,Instrument flags,absolute air pressure of the measurement (hPa),sample flow rate (lpm),inlet stack bypass flow (lpm),air temperature of the measurement (°C),ambient temperature measured by the external sensor (°C),aerosol sample conditioner tube jacket temperature (°C),OPC LED temperature (°C),internal box temperature (°C),relative humidity of the measurement (%),span deviation,mass concentration of particles derived from Lorenz-Mie calculation of OPC scattering (μg/m³),mass concentration of particles derived from Lorenz-Mie calculation of OPC scattering (μg/m³),mass concentration of particles derived from Lorenz-Mie calculation of OPC scattering (μg/m³)
DateTimeUTC,F1_M11,P_M11,Q1_M11,Q2_M11,T1_M11,T2_M11,T3_M11,T4_M11,T5_M11,U1_M11,ZSPAN_M11,X0_M11,X2_M11,X1_M11
2024-04-08 05:00:00,SystemResetWarning,0824.2,5.00,000.00,018.3,017.7,000.0,026.8,020.0,012.8,0000.0,0003.25,0001.64,0001.05
2024-04-08 05:01:00,SystemResetWarning,0824.2,5.00,000.00,018.3,017.7,000.0,026.8,020.0,012.8,0000.0,0003.24,0001.65,0001.06
2024-04-08 05:02:00,SystemResetWarning,0824.1,5.00,000.00,018.3,017.7,000.0,026.8,020.0,012.8,0000.0,0003.18,0001.64,0001.05
2024-04-08 05:03:00,SystemResetWarning,0824.0,5.00,000.00,018.3,017.7,000.0,026.8,020.0,012.9,0000.0,0003.17,0001.67,0001.05
2024-04-08 05:04:00,SystemResetWarning,0824.0,5.00,000.00,018.3,017.7,000.0,026.8,020.0,013.0,0000.0,0003.13,0001.65,0001.06
2024-04-08 05:05:00,SystemResetWarning,0824.1,4.99,000.00,018.3,017.7,000.0,026.8,020.0,013.0,0000.0,0003.01,0001.60,0001.05
2024-04-08 05:06:00,SystemResetWarning,0824.1,5.00,000.00,018.3,017.6,000.0,026.8,020.0,013.0,0000.0,0003.06,0001.61,0001.06
2024-04-08 05:07:00,SystemResetWarning,0824.2,5.00,000.00,018.3,017.6,000.0,026.8,020.0,013.0,0000.0,0002.66,0001.59,0001.05
2024-04-08 05:08:00,SystemResetWarning,0824.0,5.00,000.00,018.3,017.7,000.0,026.8,020.0,013.0,0000.0,0002.60,0001.57,0001.06
2024-04-08 05:09:00,SystemResetWarning,0824.1,5.01,000.00,018.3,017.7,000.0,026.8,020.0,013.0,0000.0,0002.67,0001.58,0001.06
2024-04-08 05:10:00,SystemResetWarning,0824.2,5.00,000.00,018.3,017.6,000.0,026.8,020.0,013.1,0000.0,0002.65,0001.59,0001.07
2024-04-08 05:11:00,SystemResetWarning,0824.1,5.00,000.00,018.3,017.6,000.0,026.8,020.0,013.2,0000.0,0003.17,0001.57,0001.07
2024-04-08 05:12:00,SystemResetWarning,0824.1,5.00,000.00,018.3,017.6,000.0,026.8,020.0,013.4,0000.0,0003.53,0001.58,0001.08
2024-04-08 05:13:00,SystemResetWarning,0824.0,5.00,000.00,018.3,017.6,000.0,026.8,020.0,013.4,0000.0,0003.58,0001.60,0001.09
2024-04-08 05:14:00,SystemResetWarning,0823.9,4.99,000.00,018.3,017.6,000.0,026.8,020.0,013.3,0000.0,0003.71,0001.63,0001.10
2024-04-08 05:15:00,SystemResetWarning,0823.9,4.99,000.00,018.3,017.6,000.0,026.8,020.0,013.0,0000.0,0003.84,0001.66,0001.10
2024-04-08 05:16:00,SystemResetWarning,0824.0,5.00,000.00,018.3,017.6,000.0,026.8,020.0,012.8,0000.0,0003.95,0001.71,0001.12
2024-04-08 05:17:00,SystemResetWarning,0824.0,5.01,000.00,018.3,017.6,000.0,026.8,020.0,012.8,0000.0,0003.84,0001.69,0001.13
2024-04-08 05:18:00,SystemResetWarning,0823.9,5.00,000.00,018.3,017.6,000.0,026.9,020.0,012.7,0000.0,0003.92,0001.69,0001.13
2024-04-08 05:19:00,SystemResetWarning,0823.9,4.99,000.00,018.3,017.6,000.0,026.9,020.0,012.8,0000.0,0003.95,0001.69,0001.13
2024-04-08 05:20:00,SystemResetWarning,0823.9,5.00,000.00,018.3,017.6,000.0,026.9,020.0,012.8,0000.0,0003.93,0001.70,0001.13
2024-04-08 05:21:00,SystemResetWarning,0823.9,4.99,000.00,018.3,017.6,000.0,026.9,020.0,012.9,0000.0,0004.13,0001.75,0001.14
2024-04-08 05:22:00,SystemResetWarning,0824.0,5.00,000.00,018.3,017.6,000.0,026.9,020.0,013.0,0000.0,0003.65,0001.75,0001.14
2024-04-08 05:23:00,SystemResetWarning,0824.0,5.00,000.00,018.3,017.5,000.0,026.9,020.0,013.0,0000.0,0003.36,0001.73,0001.12
2024-04-08 05:24:00,SystemResetWarning,0823.9,5.00,000.00,018.3,017.5,000.0,026.9,020.0,013.0,0000.0,0003.33,0001.72,0001.13
2024-04-08 05:25:00,SystemResetWarning,0823.9,5.01,000.00,018.3,017.5,000.0,026.9,020.0,013.0,0000.0,0003.70,0001.68,0001.12
2024-04-08 05:26:00,SystemResetWarning,0823.9,5.00,000.00,018.3,017.5,000.0,026.9,020.0,013.1,0000.0,0004.02,0001.68,0001.13
2024-04-08 05:27:00,SystemResetWarning,0824.0,5.00,000.00,018.2,017.5,000.0,026.9,020.0,012.6,0000.0,0003.94,0001.67,0001.12
2024-04-08 05:28:00,SystemResetWarning,0824.0,5.00,000.00,018.3,017.5,000.0,026.9,020.0,012.1,0000.0,0004.12,0001.69,0001.11
2024-04-08 05:29:00,SystemResetWarning,0824.0,5.00,000.00,018.2,017.5,000.0,026.9,020.0,012.9,0000.0,0004.21,0001.70,0001.13
2024-04-08 05:30:00,SystemResetWarning,0824.0,4.99,000.00,018.3,017.5,000.0,026.9,020.0,013.2,0000.0,0004.20,0001.72,0001.14
2024-04-08 05:31:00,SystemResetWarning,0824.0,5.00,000.00,018.2,017.5,000.0,026.9,020.0,013.0,0000.0,0004.10,0001.70,0001.15
2024-04-08 05:32:00,SystemResetWarning,0824.0,5.01,000.00,018.2,017.5,000.0,026.9,020.0,012.8,0000.0,0004.06,0001.68,0001.15
2024-04-08 05:33:00,SystemResetWarning,0824.0,5.01,000.00,018.2,017.5,000.0,026.9,020.0,012.7,0000.0,0003.98,0001.67,0001.15
2024-04-08 05:34:00,SystemResetWarning,0824.0,5.00,000.00,018.2,017.5,000.0,026.9,020.0,012.3,0000.0,0003.96,0001.70,0001.17
2024-04-08 05:35:00,SystemResetWarning,0824.0,4.98,000.00,018.2,017.5,000.0,026.9,020.0,011.9,0000.0,0003.91,0001.70,0001.17
2024-04-08 05:36:00,SystemResetWarning,0824.1,4.99,000.00,018.2,017.4,000.0,026.9,020.0,012.0,0000.0,0003.46,0001.68,0001.17
2024-04-08 05:37:00,SystemResetWarning,0824.1,5.01,000.00,018.2,017.4,000.0,026.9,020.0,012.0,0000.0,0002.95,0001.67,0001.18
2024-04-08 05:38:00,SystemResetWarning,0824.1,5.00,000.00,018.2,017.4,000.0,026.9,020.0,012.1,0000.0,0002.91,0001.66,0001.19
2024-04-08 05:39:00,SystemResetWarning,0824.2,5.00,000.00,018.2,017.4,000.0,026.9,020.0,012.1,0000.0,0002.81,0001.64,0001.19
2024-04-08 05:40:00,SystemResetWarning,0824.2,5.00,000.00,018.2,017.4,000.0,026.9,020.0,011.8,0000.0,0002.58,0001.64,0001.19
2024-04-08 05:41:00,SystemResetWarning,0824.2,5.00,000.00,018.2,017.3,000.0,026.9,020.0,011.9,0000.0,0002.60,0001.65,0001.17
2024-04-08 05:42:00,SystemResetWarning,0824.2,5.00,000.00,018.2,017.3,000.0,026.9,020.0,012.1,0000.0,0002.53,0001.62,0001.16
2024-04-08 05:43:00,SystemResetWarning,0824.2,5.00,000.00,018.2,017.3,000.0,026.9,020.0,012.2,0000.0,0002.50,0001.62,0001.16
2024-04-08 05:44:00,SystemResetWarning,0824.3,5.00,000.00,018.2,017.3,000.0,026.9,020.0,012.4,0000.0,0002.94,0001.64,0001.17
2024-04-08 05:45:00,SystemResetWarning,0824.3,5.00,000.00,018.2,017.3,000.0,026.9,020.0,012.7,0000.0,0003.53,0001.65,0001.17
2024-04-08 05:46:00,SystemResetWarning,0824.2,5.00,000.00,018.2,017.3,000.0,026.9,020.0,012.7,0000.0,0003.52,0001.64,0001.16
2024-04-08 05:47:00,SystemResetWarning,0824.1,5.00,000.00,018.2,017.4,000.0,026.9,020.0,012.5,0000.0,0003.50,0001.62,0001.16
2024-04-08 05:48:00,SystemResetWarning,0824.2,4.99,000.00,018.2,017.4,000.0,026.9,020.0,012.5,0000.0,0003.54,0001.64,0001.17
2024-04-08 05:49:00,SystemResetWarning,0824.2,5.00,000.00,018.2,017.4,000.0,026.9,020.0,012.3,0000.0,0003.47,0001.61,0001.17
2024-04-08 05:50:00,SystemResetWarning,0824.2,5.00,000.00,018.2,017.3,000.0,026.9,020.0,012.3,0000.0,0003.65,0001.62,0001.17
2024-04-08 05:51:00,SystemResetWarning,0824.2,5.01,000.00,018.2,017.3,000.0,026.9,020.0,012.3,0000.0,0004.37,0001.60,0001.17
2024-04-08 05:52:00,SystemResetWarning,0824.2,5.01,000.00,018.2,017.3,000.0,026.9,020.0,012.2,0000.0,0004.46,0001.65,0001.17
2024-04-08 05:53:00,SystemResetWarning,0824.1,5.00,000.00,018.2,017.3,000.0,026.9,020.0,012.6,0000.0,0004.67,0001.72,0001.19
2024-04-08 05:54:00,SystemResetWarning,0824.2,5.00,000.00,018.2,017.3,000.0,026.9,020.0,012.5,0000.0,0004.70,0001.74,0001.19
2024-04-08 05:55:00,SystemResetWarning,0824.2,5.00,000.00,018.2,017.3,000.0,026.9,020.0,012.5,0000.0,0004.46,0001.71,0001.19
2024-04-08 05:56:00,SystemResetWarning,0824.1,5.00,000.00,018.2,017.3,000.0,026.9,020.0,012.8,0000.0,0003.66,0001.72,0001.19
2024-04-08 05:57:00,SystemResetWarning,0824.2,4.99,000.00,018.2,017.3,000.0,026.9,020.0,013.0,0000.0,0003.93,0001.75,0001.19
2024-04-08 05:58:00,SystemResetWarning,0824.2,5.00,000.00,018.2,017.3,000.0,026.9,020.0,013.1,0000.0,0004.85,0001.81,0001.21
2024-04-08 05:59:00,SystemResetWarning,0824.3,5.01,000.00,018.2,017.2,000.0,026.9,020.0,013.1,0000.0,0006.01,0001.84,0001.20
